Theta_e
304 304 304 304 304 305 305 306 306 306 311 309 312 313 307 303 305 305 305 307 311 306 306 309 309 306 311 314 315 316 312 313 315 317 318 321 322 330 329 329 328 327 339 345 347
302 302 303 303 303 303 303 304 305 306 308 311 310 312 313 306 303 305 309 317 317 312 305 308 309 307 311 313 313 309 309 312 313 316 317 319 319 323 326 327 327 325 327 334 346
306 307 309 309 310 309 307 304 304 306 307 310 310 311 312 311 303 310 320 319 314 314 306 309 310 311 311 309 311 309 311 312 314 317 317 317 318 320 326 324 328 320 321 324 328
311 312 313 313 312 311 311 310 308 307 307 308 311 310 312 311 303 322 319 317 313 313 306 307 309 310 308 308 310 309 310 313 314 316 317 316 318 321 325 328 327 320 321 321 322
313 313 313 313 313 312 310 309 309 309 309 309 311 309 311 309 311 310 314 316 310 312 307 308 309 310 310 308 308 309 309 312 314 315 316 316 320 321 322 324 325 324 321 320 321
313 313 312 311 311 312 312 312 311 310 310 309 311 308 310 311 310 317 314 310 309 310 308 309 309 311 313 313 308 309 310 311 312 313 315 313 314 320 323 324 323 324 324 320 320
314 314 313 312 310 311 311 311 312 311 311 310 310 307 311 313 312 316 314 308 309 307 308 308 312 314 314 314 315 312 310 310 311 312 312 314 313 316 318 325 322 325 327 320 319
312 312 312 311 310 311 311 312 312 312 311 310 307 308 312 313 313 316 315 313 309 308 308 310 310 314 313 315 315 311 310 310 312 311 313 315 313 314 318 319 322 322 321 321 319
311 311 311 311 310 311 312 312 312 312 311 309 308 311 312 314 313 314 316 315 314 309 308 309 308 311 313 312 311 311 311 310 312 311 313 313 314 315 318 318 318 319 319 319 319
309 309 311 311 310 311 312 311 311 311 311 311 313 313 315 316 316 313 314 315 314 314 311 309 310 311 309 311 314 313 313 313 314 314 313 313 314 314 317 317 317 319 318 319 319
308 308 309 309 310 311 313 312 316 317 313 317 315 313 314 316 319 314 315 315 314 314 313 315 312 312 312 312 314 315 315 314 314 314 316 313 313 314 314 316 316 317 318 318 318
309 307 307 308 311 316 316 312 315 317 316 317 317 317 319 319 318 313 314 314 316 312 313 313 312 313 313 314 315 315 316 315 314 315 314 313 313 312 313 315 317 318 318 319 317
309 307 307 309 313 317 316 317 317 316 315 316 317 318 318 319 319 317 314 316 314 314 313 313 314 315 315 315 315 315 315 315 316 316 315 315 314 315 316 317 317 317 317 317 318
308 308 307 309 315 316 316 316 316 317 316 319 321 320 318 319 317 317 315 318 315 314 313 313 314 315 316 316 315 315 314 316 317 315 315 315 315 315 317 316 316 317 318 319 321
305 308 307 307 311 313 316 317 317 318 322 324 320 320 319 318 317 317 317 318 316 315 314 315 316 315 316 316 315 316 316 317 316 314 314 315 314 314 315 318 318 316 319 320 320
303 305 307 307 311 315 318 318 317 319 325 325 320 317 316 316 317 317 317 317 317 315 315 314 316 315 315 316 316 316 315 313 313 312 315 316 314 314 315 316 317 316 318 320 320
302 304 306 306 311 317 317 319 319 323 324 326 319 316 316 316 317 316 316 316 315 316 315 315 315 315 317 318 317 314 312 314 315 315 315 317 317 315 317 316 316 315 317 319 320
302 303 306 306 312 314 316 318 323 324 327 324 318 316 316 315 316 317 316 315 314 314 315 314 316 319 320 319 318 317 314 314 318 319 318 317 320 320 316 315 317 318 319 319 319
302 304 305 308 312 313 317 321 322 325 324 319 319 317 317 317 317 317 316 316 315 313 315 316 320 319 320 319 318 318 318 317 318 318 318 317 318 317 317 316 316 318 318 319 319
303 306 307 312 314 316 317 321 322 323 319 319 320 319 319 319 317 317 317 318 319 315 313 316 320 319 320 319 319 318 317 319 317 321 322 319 320 319 318 317 316 316 317 317 316
305 307 314 319 318 319 319 320 322 323 318 319 318 319 319 319 321 321 323 323 321 318 315 316 316 318 318 319 319 319 318 316 317 318 320 320 320 316 317 316 315 310 312 313 313
307 307 318 317 317 315 318 319 320 322 320 318 317 318 318 317 319 320 320 321 318 319 319 318 315 317 317 317 317 318 319 316 319 320 316 316 318 316 314 315 313 312 313 313 313
308 308 311 314 318 317 316 319 322 321 320 318 318 318 316 317 318 319 318 317 318 318 318 317 315 317 316 313 317 319 319 315 314 314 317 317 317 315 315 313 312 312 312 312 312
308 310 315 315 314 314 314 318 320 319 319 317 316 316 316 316 313 317 318 317 317 319 318 316 315 316 318 315 317 320 321 319 317 317 316 316 316 316 315 312 310 311 311 312 311
307 311 312 313 314 314 314 316 317 319 317 315 316 316 316 316 315 315 314 314 315 315 315 312 316 317 317 317 318 318 319 319 321 320 321 317 313 312 311 310 310 311 311 310 310
308 312 311 311 312 315 316 316 317 317 316 316 316 314 313 314 313 314 313 313 314 312 315 311 313 315 316 315 316 316 316 318 318 318 320 319 320 311 310 311 310 310 310 310 310
308 308 310 311 310 312 314 314 314 316 313 314 313 311 312 312 312 312 312 312 311 312 312 312 312 313 316 315 316 317 316 316 316 317 318 320 318 310 310 310 309 309 310 309 309
Wind_Speed
18 19 19 20 20 20 20 20 19 18 18 14 13 12 14 16 16 19 20 8 6 12 12 9 13 18 15 10 12 8 2 8 8 8 4 9 5 12 5 11 19 16 16 16 19
19 19 19 19 20 19 19 20 19 18 19 17 14 14 14 16 19 22 7 8 7 10 17 14 11 16 10 10 9 6 4 7 5 5 4 12 10 13 8 18 27 21 0 18 22
19 20 20 19 20 21 20 19 19 18 18 19 16 15 14 15 18 5 6 4 8 12 17 12 9 11 5 4 9 7 9 8 11 18 17 10 19 6 7 6 19 6 9 6 15
19 20 21 22 22 21 21 21 21 19 17 19 18 14 15 11 3 6 5 7 12 16 16 19 13 9 5 7 12 3 8 14 11 31 16 9 25 10 17 28 19 6 14 7 15
20 21 22 23 23 24 24 22 20 20 19 18 18 15 13 9 14 6 12 14 15 21 23 22 20 10 6 5 5 6 10 13 22 30 25 24 18 17 24 19 26 25 10 11 9
22 22 23 24 24 25 25 26 24 19 19 17 16 14 10 5 5 5 6 9 13 22 23 22 16 17 6 5 9 8 20 21 25 25 28 11 16 13 17 26 26 27 26 14 12
25 25 25 26 26 27 29 28 24 19 15 16 12 12 14 23 7 7 6 3 13 19 25 24 12 18 10 4 10 21 5 4 12 16 10 14 9 9 28 40 14 37 33 26 16
27 27 26 25 26 28 30 24 16 15 11 10 9 10 12 8 14 14 11 6 11 13 18 17 21 20 5 5 7 3 5 4 14 8 15 12 10 16 34 27 37 43 33 35 25
26 26 26 25 27 30 26 14 8 9 8 5 8 8 13 8 17 14 13 8 9 12 19 5 17 10 3 4 3 2 5 8 15 14 7 9 9 14 21 26 28 30 37 37 24
25 26 25 25 27 28 18 6 4 6 3 6 7 3 11 3 12 18 16 14 11 11 16 14 14 5 1 3 4 6 2 4 5 4 8 6 7 8 14 21 23 24 28 27 26
24 26 24 26 25 24 12 1 3 2 11 12 8 10 11 6 4 15 18 16 19 9 6 4 2 6 9 8 4 3 3 5 5 5 4 7 8 13 10 6 8 14 15 20 25
25 25 26 24 23 13 9 5 4 2 9 19 22 24 22 20 6 13 19 11 9 6 3 3 5 9 4 6 6 5 3 7 8 5 4 7 11 8 7 7 10 14 12 17 13
25 26 27 21 15 7 10 6 8 6 5 8 17 19 14 10 8 15 16 19 3 4 5 6 8 3 5 6 5 6 4 5 7 3 2 2 7 3 3 1 1 7 8 10 12
25 26 25 20 8 8 2 8 12 1 3 5 4 7 12 9 5 15 23 15 4 8 4 5 10 10 7 6 6 6 7 6 6 3 2 3 2 5 3 3 2 9 11 18 28
26 24 25 20 13 14 3 9 7 1 2 3 4 3 13 15 4 12 18 19 8 5 5 6 3 3 3 4 6 10 5 4 3 5 4 5 5 7 4 1 2 3 16 26 27
26 24 25 18 18 7 5 4 1 3 6 2 8 6 5 6 4 2 13 19 12 4 3 7 7 4 6 4 3 7 5 7 5 3 3 3 4 5 3 4 1 0 19 23 21
29 25 23 24 17 10 4 2 2 4 3 5 5 6 7 6 6 4 7 7 7 3 4 2 4 3 4 2 5 6 6 2 2 3 5 1 3 7 3 4 9 9 15 20 21
32 28 23 21 15 16 5 3 4 6 5 3 4 6 7 8 6 8 7 5 3 4 0 4 3 2 1 3 4 2 5 5 6 4 3 4 4 5 5 7 20 22 21 19 16
33 28 22 11 18 16 6 3 6 6 4 2 2 4 5 6 6 5 8 9 6 9 7 4 3 2 3 2 4 2 3 3 6 2 3 3 1 5 6 5 13 19 17 17 16
33 30 18 10 19 17 3 5 5 5 3 2 3 2 5 4 8 8 9 4 5 7 3 5 3 2 3 2 5 4 5 3 3 4 3 3 3 5 6 8 6 5 14 12 8
25 15 5 11 21 9 4 6 5 14 9 5 5 4 2 2 3 4 7 3 1 2 5 4 4 3 0 1 4 1 2 5 5 3 5 1 4 6 8 4 4 5 6 2 11
11 4 5 19 3 3 3 5 6 9 9 3 3 3 3 3 1 3 3 1 2 2 2 1 4 3 5 2 3 3 3 3 4 4 2 4 4 2 7 3 5 13 13 14 13
17 9 3 11 3 4 6 5 3 2 6 4 3 3 1 3 3 3 5 5 2 3 5 5 2 2 7 5 4 2 3 3 4 3 7 6 5 5 6 6 16 20 13 11 6
6 4 6 3 3 2 4 5 2 4 5 4 3 5 4 3 5 3 3 5 6 6 10 5 3 5 6 4 3 2 2 3 4 3 2 5 6 6 3 7 6 12 12 10 2
3 3 3 4 2 6 3 5 3 3 3 8 5 3 5 4 2 3 3 4 6 9 5 4 3 2 3 1 2 3 4 5 5 7 6 4 6 6 4 8 8 9 5 2 4
4 4 8 7 10 5 3 3 4 5 2 2 4 3 5 5 3 5 4 1 1 6 3 4 2 2 1 1 3 5 7 9 7 9 12 11 7 4 7 12 9 5 3 5 6
7 8 4 7 4 3 2 5 7 2 9 6 9 5 5 4 5 5 3 5 5 3 2 2 3 2 3 2 4 5 13 11 10 10 9 9 8 8 4 7 7 2 2 6 13
Wind_Direction
330 329 329 330 331 330 330 329 331 331 329 316 310 316 315 309 297 283 273 263 251 228 224 221 206 206 205 202 197 197 180 216 198 181 255 292 339 223 158 311 327 308 177 163 172
334 332 330 328 327 326 325 324 324 328 328 319 303 307 315 314 304 284 264 204 236 235 214 208 182 178 184 202 192 168 191 219 188 218 218 305 317 24 12 301 294 305 85 160 183
338 337 333 331 327 323 321 320 318 321 323 322 305 300 309 319 316 271 179 231 250 242 212 197 175 182 204 175 194 194 228 220 261 253 253 289 292 295 158 296 263 302 351 154 171
338 337 336 334 330 326 320 317 313 313 319 320 310 292 301 314 283 178 244 258 256 225 200 193 181 172 184 199 210 258 239 233 228 246 251 238 270 283 172 239 239 346 327 296 139
335 334 330 327 325 324 319 315 311 307 309 312 309 283 295 292 262 265 262 268 240 201 190 179 181 178 172 201 195 224 241 241 242 247 241 247 221 234 247 243 258 295 276 255 235
328 326 323 322 319 319 315 310 305 298 301 305 302 275 280 270 278 241 279 259 224 196 186 186 197 191 210 217 176 250 232 248 253 256 244 223 232 231 244 255 262 255 252 225 218
320 318 319 317 317 316 315 309 298 285 291 300 285 262 266 256 245 241 253 248 214 205 193 199 195 187 198 244 265 219 256 279 256 246 243 230 281 199 229 234 268 265 263 245 227
320 320 319 317 319 319 319 312 295 270 277 288 260 255 257 269 219 221 227 220 204 214 207 195 201 224 250 286 308 201 131 243 257 204 249 170 258 245 230 200 199 209 237 263 251
324 324 322 322 323 323 325 315 277 263 268 243 235 233 266 259 225 203 222 213 209 207 215 168 222 232 226 146 342 347 212 206 262 195 197 166 222 247 228 211 212 211 222 229 230
329 328 326 325 326 325 329 312 251 245 172 183 207 267 252 249 247 223 224 231 219 230 235 228 218 197 110 107 220 239 282 256 237 220 174 175 228 244 223 212 221 232 242 237 228
330 329 326 327 328 324 323 228 164 188 206 212 204 230 277 289 267 213 209 217 234 236 191 201 157 222 223 207 198 237 234 257 247 240 174 225 216 244 211 211 217 248 245 222 215
328 330 326 327 326 322 320 237 258 311 284 258 249 256 255 265 303 225 207 206 187 205 176 356 246 246 222 253 218 233 267 288 288 272 118 292 251 236 156 199 220 232 228 229 206
325 328 326 326 318 304 322 8 327 282 270 277 232 230 226 212 213 223 211 210 179 206 192 179 246 337 205 275 299 279 223 244 214 12 214 74 350 31 148 118 276 256 261 243 177
322 325 326 324 306 294 318 355 356 239 20 267 212 229 203 197 239 216 214 201 220 207 196 229 265 241 263 251 181 270 272 201 178 118 205 54 273 323 45 350 90 226 197 161 149
319 320 320 316 280 274 309 323 332 24 341 189 184 189 185 172 139 200 203 197 194 207 121 241 261 327 277 221 168 229 188 132 75 89 81 347 83 270 339 314 323 168 163 151 148
315 314 312 303 273 201 284 289 208 38 253 253 151 166 134 192 188 121 177 203 228 212 225 231 258 231 219 269 237 147 87 50 47 75 55 254 125 287 235 192 138 292 149 146 140
316 311 303 284 249 202 266 231 64 198 302 193 183 159 178 174 225 185 162 175 184 164 241 275 243 261 216 233 14 71 70 1 359 16 204 18 66 233 294 181 168 167 156 148 145
318 313 301 267 233 235 246 73 217 233 233 290 161 139 179 168 221 184 151 191 252 123 58 164 309 184 244 153 161 80 147 155 199 186 235 269 224 253 305 144 154 157 158 162 167
320 317 306 263 203 201 189 184 218 215 243 178 308 153 206 214 182 150 177 200 199 173 178 171 254 354 49 93 123 166 69 175 98 30 87 241 252 345 34 87 148 168 175 189 199
327 321 304 218 190 186 125 237 235 232 269 202 172 72 178 234 169 157 167 189 171 185 169 195 153 326 319 101 22 130 166 62 14 145 218 279 250 188 204 183 200 206 205 220 256
331 317 317 183 172 170 194 228 266 273 246 178 166 165 148 270 129 150 155 103 227 91 130 133 134 259 67 99 178 30 132 68 102 134 163 222 257 220 186 203 220 20 37 117 141
346 314 105 157 152 181 206 209 249 273 295 186 122 97 141 24 89 138 134 112 76 50 118 354 122 182 213 279 348 138 177 146 155 222 205 156 257 24 143 136 116 110 109 124 122
324 278 304 214 226 261 275 266 262 326 288 208 132 135 139 99 99 82 89 24 63 107 168 184 75 72 344 3 18 119 72 128 125 86 180 168 247 231 214 113 129 128 122 120 103
310 312 316 3 69 290 354 270 230 222 248 338 87 91 94 72 25 86 82 18 22 52 61 89 125 163 187 187 149 181 173 138 114 103 232 222 247 280 322 125 132 118 132 136 130
270 274 345 324 326 318 289 277 276 225 127 19 40 83 134 110 64 79 49 7 38 5 39 84 173 166 216 194 199 233 253 228 183 193 191 236 207 279 170 153 129 119 111 64 349
293 329 339 295 291 291 278 322 276 280 349 24 116 65 80 119 169 178 137 81 104 3 64 1 178 130 270 308 230 257 250 239 241 222 211 223 257 163 121 117 104 89 31 357 343
308 306 305 285 319 347 303 308 286 241 25 93 135 92 72 144 128 134 163 165 154 120 101 79 121 94 248 353 321 272 238 233 231 228 208 217 203 158 160 147 152 94 29 350 336